Temp
4 4 4 4 4 4 4 4 5 5 5 4 4 5 5 5 5 5 5 5 5 5 5 5 5 5 5 5 6 6 6 6 6 6 6 6 5 6 6 5 5 5
4 4 4 4 4 4 4 4 5 5 5 5 5 5 5 5 5 5 5 5 5 5 5 5 5 5 5 6 6 6 6 6 6 6 5 5 5 6 5 5 5 5
5 4 4 4 4 4 4 4 5 5 5 5 5 5 5 5 5 5 5 5 5 5 5 5 5 5 5 5 5 5 6 6 5 5 5 5 5 5 5 5 5 5
5 5 5 4 4 4 4 4 4 5 5 5 5 5 5 5 5 5 5 5 5 5 5 5 5 5 5 5 5 5 5 5 5 5 5 5 5 5 5 5 5 5
5 5 4 4 4 4 4 4 5 5 5 5 5 5 5 5 5 5 5 5 5 5 5 5 5 5 5 5 5 5 5 5 5 5 5 5 5 5 4 4 4 4
5 5 4 4 4 4 4 5 5 5 5 5 5 5 5 5 5 5 4 4 4 4 5 5 5 5 5 4 5 5 5 5 5 5 4 4 4 4 4 4 4 4
4 4 4 4 4 4 4 5 5 5 5 5 5 5 5 5 5 4 4 4 4 4 4 4 4 4 4 4 4 4 4 4 4 4 4 4 4 4 4 4 4 4
4 4 4 4 4 4 5 5 5 5 5 5 5 5 5 5 5 4 4 4 4 4 4 4 4 4 4 4 4 4 4 4 4 4 4 4 4 4 4 4 4 4
4 4 4 4 4 4 5 5 5 5 5 5 4 4 4 5 4 4 4 4 4 4 4 4 4 4 4 4 4 3 3 3 4 4 4 4 4 4 4 4 4 3
4 4 4 4 4 4 5 5 4 4 4 4 4 4 5 5 5 4 4 4 4 4 4 4 4 4 3 3 3 3 3 3 3 3 3 3 3 3 3 3 3 3
4 4 4 4 4 4 4 4 4 4 4 4 4 4 5 5 5 4 4 4 4 4 4 3 3 3 3 3 3 3 3 3 3 3 3 3 3 3 3 3 3 3
4 4 4 4 4 4 4 4 4 4 4 4 4 4 5 5 4 4 4 4 4 3 3 3 3 3 3 3 3 3 3 3 3 3 3 3 3 3 3 3 2 2
4 4 4 4 4 4 4 4 4 4 4 4 4 4 4 4 4 4 4 4 4 3 3 3 3 3 3 2 2 3 3 3 3 3 3 3 2 2 2 2 2 2
4 4 4 4 4 4 4 4 4 4 4 4 4 4 4 4 4 4 4 4 3 3 3 2 2 2 2 2 2 3 3 3 3 3 2 2 2 2 2 2 1 1
4 4 4 4 4 4 4 4 4 4 4 4 4 4 4 4 4 4 4 3 3 3 3 2 2 2 2 2 2 3 3 3 2 2 2 2 2 2 1 1 1 1
4 4 4 4 4 4 3 3 3 3 3 3 4 4 4 4 4 4 4 3 3 3 2 2 2 2 2 2 2 2 2 2 2 2 2 2 1 1 1 1 1 1
3 4 4 4 4 3 3 3 3 3 3 3 4 4 4 4 4 4 3 3 3 2 2 2 2 2 2 2 2 2 2 2 2 1 1 1 1 1 1 1 1 1
3 4 4 3 3 3 3 3 3 3 3 3 3 3 3 4 4 4 3 3 2 2 2 2 2 2 2 2 2 2 2 1 1 1 1 1 1 1 1 1 0 0
3 3 3 3 3 3 3 3 3 3 3 3 3 4 4 4 4 4 3 3 2 2 2 2 2 2 2 2 2 1 1 1 1 1 1 1 1 1 0 0 -0 -0
3 3 3 3 3 3 3 3 3 3 3 3 4 4 3 3 4 3 3 2 2 2 2 2 2 2 2 1 1 1 1 1 1 1 1 0 0 0 -0 -0 -1 -1
3 3 3 3 3 3 3 3 3 3 3 3 3 3 3 3 3 3 2 2 2 2 2 2 2 1 1 1 1 1 1 0 0 0 0 0 -0 -0 -1 -1 -1 -1
4 3 3 3 3 3 3 3 3 3 3 3 3 3 3 2 2 2 2 2 2 2 2 2 1 1 1 1 1 1 0 0 0 -0 -0 -0 -0 -1 -1 -1 -1 -1
3 3 3 3 3 3 3 3 3 3 3 3 2 2 2 2 2 2 2 2 2 2 2 1 1 1 1 1 0 0 0 -0 -0 -0 -0 -1 -1 -1 -1 -1 -1 -2
3 3 3 3 3 3 2 2 2 2 2 2 2 2 2 2 2 2 2 2 2 1 1 1 1 1 1 0 0 -0 -0 -0 -1 -1 -1 -1 -1 -1 -1 -2 -2 -2
2 2 2 2 2 2 2 2 2 2 2 2 2 2 2 2 2 2 2 2 2 1 1 1 1 1 0 -0 -0 -0 -1 -1 -1 -1 -1 -1 -1 -1 -2 -2 -2 -2
2 2 2 2 2 2 2 2 2 2 2 1 1 1 2 2 2 2 2 2 1 1 1 1 0 0 -0 -0 -1 -1 -1 -1 -1 -1 -1 -1 -1 -2 -2 -2 -2 -2
Height
3134 3136 3137 3139 3140 3141 3143 3145 3146 3147 3148 3149 3150 3151 3152 3153 3154 3154 3155 3155 3156 3156 3157 3157 3157 3157 3156 3156 3156 3155 3155 3155 3155 3154 3154 3153 3153 3152 3152 3151 3150 3149
3134 3135 3136 3138 3139 3140 3142 3144 3145 3146 3147 3148 3149 3150 3151 3152 3153 3153 3154 3154 3155 3155 3155 3156 3155 3155 3155 3155 3155 3154 3154 3154 3153 3153 3153 3152 3151 3151 3150 3149 3148 3147
3133 3134 3136 3136 3136 3138 3141 3142 3144 3145 3146 3147 3148 3149 3150 3151 3152 3152 3153 3153 3153 3154 3154 3154 3154 3154 3154 3154 3153 3153 3153 3153 3152 3151 3151 3150 3150 3149 3148 3147 3146 3144
3133 3134 3134 3134 3134 3137 3139 3141 3143 3144 3145 3146 3147 3148 3149 3150 3151 3151 3152 3152 3152 3153 3153 3153 3153 3153 3153 3152 3152 3152 3152 3151 3151 3150 3149 3148 3148 3147 3146 3144 3143 3142
3131 3132 3133 3134 3135 3136 3138 3140 3142 3143 3144 3145 3146 3147 3148 3149 3150 3150 3150 3150 3151 3151 3152 3152 3152 3152 3151 3151 3151 3151 3150 3150 3149 3148 3147 3147 3146 3145 3143 3142 3141 3139
3129 3130 3132 3133 3134 3136 3137 3139 3141 3142 3143 3144 3145 3146 3147 3148 3148 3148 3149 3149 3150 3150 3151 3151 3151 3150 3150 3150 3149 3149 3149 3148 3147 3146 3146 3145 3144 3142 3141 3140 3139 3137
3128 3128 3130 3132 3134 3135 3137 3138 3140 3141 3142 3142 3144 3145 3146 3146 3147 3147 3147 3148 3149 3149 3150 3150 3149 3149 3148 3148 3147 3147 3147 3146 3145 3144 3143 3142 3141 3140 3139 3138 3137 3135
3128 3128 3129 3131 3132 3134 3136 3137 3139 3139 3140 3141 3143 3143 3144 3144 3145 3145 3146 3147 3148 3148 3148 3148 3147 3147 3146 3146 3145 3145 3144 3144 3143 3142 3141 3140 3139 3138 3137 3136 3135 3133
3126 3128 3129 3130 3131 3133 3134 3136 3137 3138 3139 3140 3141 3142 3142 3143 3143 3144 3145 3146 3146 3146 3146 3146 3145 3144 3144 3144 3143 3142 3142 3142 3141 3140 3140 3139 3138 3136 3135 3134 3133 3132
3123 3125 3127 3129 3130 3132 3133 3134 3136 3137 3138 3139 3139 3140 3141 3141 3142 3143 3144 3144 3144 3144 3144 3144 3143 3143 3142 3141 3141 3141 3140 3140 3139 3139 3138 3137 3136 3135 3134 3133 3132 3131
3120 3123 3125 3128 3129 3130 3132 3133 3134 3135 3136 3137 3138 3138 3139 3140 3141 3141 3142 3142 3142 3143 3143 3142 3141 3141 3140 3140 3139 3139 3139 3138 3137 3137 3136 3135 3134 3134 3133 3132 3131 3130
3119 3122 3124 3126 3128 3129 3131 3132 3133 3134 3135 3136 3136 3137 3138 3138 3139 3139 3140 3140 3140 3141 3141 3140 3139 3139 3138 3138 3138 3138 3137 3137 3136 3135 3135 3134 3133 3132 3132 3131 3130 3129
3119 3121 3122 3124 3126 3128 3130 3131 3132 3133 3133 3134 3134 3135 3136 3136 3137 3137 3137 3138 3139 3139 3139 3138 3137 3137 3137 3136 3136 3136 3136 3135 3135 3134 3133 3133 3132 3131 3130 3130 3129 3128
3118 3120 3121 3123 3125 3126 3128 3129 3130 3131 3131 3132 3133 3133 3134 3134 3135 3135 3135 3136 3137 3137 3137 3136 3135 3135 3135 3135 3135 3135 3135 3134 3133 3133 3132 3131 3131 3130 3129 3129 3128 3127
3118 3119 3120 3121 3123 3124 3125 3126 3127 3128 3129 3130 3130 3131 3131 3132 3133 3133 3134 3134 3135 3135 3134 3134 3134 3134 3134 3134 3134 3134 3133 3133 3132 3132 3131 3130 3130 3129 3128 3128 3127 3126
3117 3118 3119 3119 3120 3121 3122 3124 3125 3126 3127 3128 3128 3129 3129 3130 3131 3132 3132 3132 3132 3132 3132 3132 3132 3133 3133 3133 3133 3132 3132 3131 3131 3131 3130 3129 3129 3128 3127 3127 3126 3125
3114 3116 3116 3117 3118 3118 3120 3121 3123 3124 3125 3126 3127 3128 3128 3129 3130 3130 3130 3130 3131 3131 3131 3131 3131 3131 3131 3131 3131 3131 3131 3130 3130 3130 3129 3128 3128 3127 3127 3126 3125 3124
3112 3113 3114 3115 3115 3116 3117 3119 3121 3123 3124 3125 3126 3127 3127 3128 3129 3129 3129 3129 3129 3129 3130 3130 3130 3130 3130 3129 3130 3130 3130 3130 3129 3128 3128 3127 3127 3126 3126 3125 3125 3124
3110 3111 3112 3113 3114 3114 3116 3118 3120 3121 3122 3123 3124 3125 3126 3126 3127 3127 3127 3127 3127 3128 3128 3128 3128 3128 3128 3128 3129 3129 3129 3128 3128 3128 3127 3127 3126 3126 3126 3125 3124 3123
3108 3109 3110 3111 3113 3113 3115 3117 3118 3120 3121 3121 3122 3123 3123 3124 3124 3124 3125 3125 3126 3126 3126 3126 3126 3127 3127 3128 3128 3128 3128 3127 3127 3127 3127 3126 3126 3126 3125 3125 3124 3122
3107 3108 3108 3110 3111 3113 3114 3116 3117 3118 3119 3120 3120 3121 3122 3122 3123 3123 3123 3124 3124 3124 3124 3124 3125 3126 3126 3127 3127 3127 3127 3127 3127 3127 3127 3127 3126 3126 3125 3124 3123 3122
3106 3106 3107 3109 3110 3112 3114 3115 3116 3117 3118 3118 3119 3119 3120 3121 3121 3122 3122 3122 3123 3123 3123 3123 3124 3125 3126 3126 3126 3126 3126 3126 3126 3127 3127 3126 3126 3125 3124 3123 3122 3121
3104 3105 3107 3108 3109 3111 3112 3113 3114 3115 3116 3117 3117 3118 3118 3119 3120 3120 3121 3121 3121 3121 3122 3122 3123 3124 3125 3125 3125 3126 3126 3126 3126 3126 3126 3126 3125 3124 3123 3122 3121 3120
3103 3104 3106 3107 3108 3109 3110 3111 3112 3113 3114 3115 3116 3116 3116 3117 3118 3119 3119 3119 3120 3120 3121 3122 3123 3123 3124 3125 3125 3125 3126 3126 3126 3126 3126 3125 3124 3124 3123 3122 3121 3120
3101 3102 3103 3105 3106 3106 3107 3108 3110 3111 3112 3113 3114 3114 3115 3116 3117 3117 3118 3118 3119 3119 3120 3121 3122 3123 3124 3124 3125 3125 3126 3126 3126 3125 3125 3124 3123 3123 3122 3121 3120 3119
3098 3099 3101 3103 3104 3104 3105 3107 3108 3110 3111 3111 3112 3113 3114 3115 3115 3116 3116 3117 3118 3118 3120 3121 3122 3123 3123 3124 3124 3125 3125 3125 3125 3125 3124 3123 3123 3122 3121 3120 3119 3118
Wind_Speed
21 18 19 20 19 17 15 15 16 15 13 12 13 13 13 12 13 13 13 12 10 10 10 9 9 9 9 9 9 10 11 12 14 15 16 17 19 20 21 23 24 25
18 17 19 19 17 16 16 15 15 14 13 13 14 15 15 14 15 14 13 11 10 10 10 9 10 9 9 9 10 11 12 13 15 16 18 19 20 22 23 24 25 26
18 17 18 19 17 16 17 16 15 14 14 15 16 16 16 16 16 14 12 10 10 10 10 10 10 9 9 10 11 12 13 15 16 18 19 21 22 23 24 25 25 26
19 17 17 18 17 15 17 17 16 15 16 17 17 17 17 16 15 13 11 11 10 10 9 9 10 10 10 10 12 13 14 16 18 19 21 22 23 24 25 25 25 26
19 17 16 17 16 16 17 17 17 17 17 18 18 18 17 16 14 12 11 11 9 9 9 9 10 10 11 12 13 14 16 18 19 20 22 22 23 24 24 25 25 26
20 18 16 17 17 17 17 17 17 18 19 19 19 18 17 15 14 13 12 11 10 9 10 10 11 11 12 13 14 16 17 18 20 21 21 22 23 23 24 24 26 27
20 18 16 17 17 17 17 18 18 19 19 20 20 18 17 15 14 14 13 12 11 11 12 12 12 13 13 15 16 17 17 19 20 20 21 22 22 22 23 25 26 27
21 18 17 18 18 19 20 20 20 20 20 20 19 18 17 16 16 15 14 13 13 13 14 14 14 14 15 16 16 17 18 19 20 20 21 21 21 22 23 25 25 25
23 20 19 19 19 20 21 21 20 21 21 20 19 18 18 17 17 16 15 15 15 15 15 15 15 15 16 16 17 18 19 19 20 20 20 20 21 22 23 23 23 22
24 20 19 20 20 20 21 20 20 21 20 19 19 19 19 18 17 16 16 16 17 17 16 16 16 16 16 17 17 18 19 19 19 19 19 20 21 21 20 20 20 21
23 19 18 19 20 20 20 20 20 19 19 18 18 19 19 18 17 17 17 17 18 17 17 17 17 17 17 17 18 18 19 19 19 19 19 19 18 18 17 18 18 19
21 19 18 19 19 19 19 19 19 18 18 18 18 18 17 17 17 17 18 18 18 18 18 18 17 16 17 17 18 18 18 18 17 17 17 16 15 15 15 16 17 16
18 17 17 17 18 18 18 18 18 18 18 17 17 17 16 17 18 18 19 19 18 18 19 19 17 17 17 17 17 17 17 16 16 15 14 13 13 14 14 15 14 14
16 17 17 16 17 17 18 18 19 18 18 17 16 16 17 18 18 19 19 18 16 16 17 18 17 17 17 17 17 16 15 14 13 12 11 11 12 13 13 13 13 13
17 18 17 17 17 19 19 19 18 18 17 16 16 17 17 18 19 19 18 17 15 14 15 15 15 15 15 15 15 14 13 11 10 9 10 10 11 11 11 11 12 14
18 18 18 19 20 20 20 18 18 18 16 15 16 17 18 18 18 17 16 15 14 13 13 13 13 13 13 13 12 11 10 8 7 8 9 9 10 10 11 12 13 14
18 17 17 19 20 21 20 18 18 16 15 14 15 16 16 15 15 15 15 14 13 12 12 12 11 11 11 11 10 8 6 6 6 7 8 8 9 10 11 12 13 15
15 16 18 20 22 22 20 18 16 15 15 15 15 14 13 13 13 14 15 14 13 12 11 10 10 10 9 8 6 5 4 5 5 6 7 8 9 10 11 12 14 15
11 15 18 20 20 17 14 14 14 14 14 15 15 15 14 14 14 14 15 14 13 12 11 10 9 8 7 5 4 3 3 4 5 6 7 8 9 10 11 12 13 14
11 12 14 15 15 12 9 9 12 13 12 13 14 16 16 16 15 15 15 14 12 11 10 9 7 6 4 3 3 2 3 4 5 6 7 7 8 9 10 12 13 13
11 11 11 11 11 10 9 9 11 13 14 15 17 18 18 16 16 15 13 12 11 11 9 7 5 4 3 3 2 2 3 4 5 6 6 7 7 9 10 11 12 13
12 11 11 12 12 11 11 11 12 13 15 16 17 17 16 14 13 13 12 12 11 9 7 6 5 5 4 3 1 2 3 4 5 5 6 6 7 8 10 11 12 12
12 13 13 14 13 12 11 12 13 14 15 15 15 15 13 12 11 11 11 11 10 8 6 6 6 6 4 2 1 2 3 4 4 5 5 6 7 9 10 11 11 11
14 16 17 15 13 12 12 13 14 14 13 13 14 13 12 12 11 11 11 10 8 7 7 7 7 5 3 1 1 2 3 3 4 4 5 6 7 9 10 10 10 11
18 19 18 15 13 13 14 15 14 13 12 13 13 13 12 12 11 11 10 9 8 8 8 8 6 4 2 1 1 2 3 3 4 4 5 6 7 8 9 9 10 11
22 21 17 15 15 15 15 15 13 12 12 13 13 13 12 12 11 10 9 8 8 9 8 6 4 3 2 1 2 2 3 3 4 4 5 6 7 8 8 8 10 11
Wind_Direction
234 230 232 237 238 237 235 231 229 226 222 220 216 212 212 214 221 230 241 251 256 258 261 270 280 286 291 299 308 312 314 315 314 314 312 310 308 304 302 301 302 304
234 234 238 241 238 235 235 230 227 224 216 212 209 206 208 213 222 233 243 249 254 257 261 268 274 282 294 306 314 314 313 313 311 310 308 305 303 302 302 302 304 306
239 240 241 243 236 229 232 229 223 219 213 209 206 205 209 216 226 235 243 248 254 258 262 267 272 283 297 306 310 310 310 309 306 304 302 301 302 302 303 304 305 307
240 239 239 243 236 225 226 224 218 214 211 207 205 207 213 221 230 236 243 250 257 262 266 269 275 285 295 300 303 304 304 302 301 300 300 301 303 304 305 306 307 309
235 232 234 237 231 224 223 220 214 212 210 207 207 212 218 225 232 238 244 252 259 267 271 274 279 285 291 295 298 299 300 299 300 301 302 304 305 305 306 308 309 309
231 226 227 227 225 223 221 218 215 212 211 212 214 218 222 228 234 239 247 255 263 271 273 276 280 285 290 293 295 296 298 301 303 304 305 305 305 305 307 308 309 310
236 228 223 222 221 220 221 221 217 215 215 217 219 222 225 230 235 241 249 257 264 270 272 276 280 284 288 290 292 296 300 303 305 305 305 305 306 307 307 309 311 313
245 234 223 222 218 216 221 223 220 217 218 221 223 225 228 233 238 244 250 256 263 268 272 277 281 284 287 290 293 299 303 305 305 305 306 306 307 308 310 312 314 314
245 231 220 222 217 214 219 221 220 220 222 225 227 229 232 236 241 246 252 258 264 270 275 279 283 286 289 293 298 302 304 305 305 305 306 306 308 310 313 314 315 316
240 225 216 221 218 216 219 221 222 223 225 229 232 234 236 239 245 251 258 263 268 273 278 281 285 287 291 296 300 302 303 303 303 304 305 308 311 313 314 314 315 318
235 225 218 219 217 217 220 222 223 227 231 235 237 238 240 244 251 258 264 269 273 277 281 283 286 289 293 298 300 300 300 301 302 305 308 312 314 314 314 316 318 321
225 225 221 217 217 218 220 223 228 235 240 242 243 244 246 250 258 264 269 273 276 280 283 284 286 289 294 296 296 297 298 300 304 309 312 313 314 314 316 319 321 324
220 223 221 217 218 220 222 228 236 243 248 249 250 251 251 255 260 265 269 273 280 288 289 285 283 285 289 291 293 295 298 303 308 311 313 313 313 316 319 323 325 328
223 223 223 221 221 222 226 234 241 247 251 252 253 253 254 257 262 267 271 276 284 291 288 281 277 279 283 287 291 294 299 306 309 311 311 312 316 320 323 326 329 332
224 224 225 224 223 225 230 236 241 245 247 248 251 253 256 260 264 268 273 277 282 282 277 273 275 278 282 286 289 294 301 307 308 309 311 315 320 324 326 330 333 338
224 224 225 226 226 229 232 235 238 241 244 247 251 255 258 263 267 271 275 278 278 273 269 270 274 278 281 284 289 297 303 304 304 309 315 320 325 327 329 333 338 341
222 224 225 229 233 233 232 234 236 238 242 248 253 259 264 268 270 273 275 275 272 267 266 270 274 276 280 286 293 298 298 299 308 317 323 325 327 330 333 337 341 343
221 227 231 234 237 233 226 225 229 235 243 249 254 260 264 265 265 266 269 269 266 266 268 270 273 276 282 288 291 289 290 304 319 326 329 329 329 332 337 341 343 344
234 238 240 241 245 245 234 224 227 238 247 249 250 253 254 255 257 261 263 262 263 266 266 267 271 278 283 282 273 274 296 318 330 331 330 329 329 333 339 343 344 345
242 243 244 242 245 246 234 219 222 232 241 244 246 249 249 248 251 254 255 257 259 260 260 265 272 273 265 246 245 276 314 330 331 330 328 326 329 336 341 343 345 349
243 245 236 226 222 213 204 206 216 226 235 240 244 246 246 245 246 248 251 252 252 252 256 262 259 239 220 217 238 301 332 333 328 324 323 325 331 339 342 344 348 353
246 244 223 207 201 197 199 210 219 229 235 239 244 248 248 245 242 243 244 244 245 249 251 244 219 199 201 218 258 327 330 325 321 318 320 325 334 341 344 347 352 355
237 226 207 198 199 202 210 219 226 233 239 244 250 253 250 245 239 238 239 238 240 240 230 211 197 195 204 227 299 326 320 314 314 315 320 327 337 344 347 350 355 359
223 208 200 200 204 212 222 229 233 238 243 248 251 250 246 242 238 235 234 233 228 216 202 195 197 203 207 228 304 310 308 307 308 310 319 330 340 347 350 352 358 5
215 198 197 204 211 219 228 234 239 242 245 245 245 242 239 236 233 229 227 222 209 198 193 195 200 204 197 206 286 299 300 302 304 310 321 331 341 349 352 357 4 11
211 195 196 209 217 225 232 236 238 241 242 240 238 235 231 228 223 219 216 211 202 196 193 191 187 183 176 190 263 284 291 297 302 311 322 331 343 352 356 2 11 16